FWI7219 FIMP-TNCM

Flight info

Callsign FWI7219
Flight time N/A
Altitude 34000
Route RASMA2B RASMA UA400 VLS DCT EGSUD/N0497F360 UA400 VNA DCT 03S002W/N0488F380 04N019W 08N030W/N0482F400 12N041W 15N050W 17N060W DCT ELOPO
Aircraft A359/H-SDE2E3GHIJ3J4J5LM1ORWXY/LB1D1

Departure

Time 2026-05-09 04:04
Airport Sir Seewoosagur Ramgoolam International Airport (FIMP)

Arrival

Time N/A
Airport Princess Juliana International Airport (TNCM)
Time Latitude Longitude Altitude Speed Heading
2026-05-09 03:43 -20.43207 57.67910 192 ft 0 kts 225°
2026-05-09 03:53 -20.43204 57.67914 207 ft 3 kts 225°
2026-05-09 03:54 -20.43185 57.67934 192 ft 4 kts 225°
2026-05-09 03:54 -20.43167 57.67952 192 ft 2 kts 225°
2026-05-09 03:54 -20.43153 57.67969 192 ft 4 kts 254°
2026-05-09 03:54 -20.43152 57.67987 204 ft 4 kts 300°
2026-05-09 03:55 -20.43167 57.68007 207 ft 4 kts 318°
2026-05-09 03:55 -20.43174 57.68013 192 ft 0 kts 319°
2026-05-09 03:59 -20.43169 57.68010 192 ft 3 kts 319°
2026-05-09 03:59 -20.43135 57.67973 204 ft 11 kts 311°
2026-05-09 04:00 -20.43080 57.67888 201 ft 17 kts 298°
2026-05-09 04:00 -20.43016 57.67757 203 ft 23 kts 297°
2026-05-09 04:00 -20.42913 57.67627 197 ft 23 kts 332°
2026-05-09 04:00 -20.42785 57.67540 207 ft 21 kts 314°
2026-05-09 04:01 -20.42673 57.67470 200 ft 17 kts 341°
2026-05-09 04:01 -20.42581 57.67420 202 ft 13 kts 312°
2026-05-09 04:01 -20.42533 57.67333 214 ft 14 kts 298°
2026-05-09 04:01 -20.42481 57.67229 205 ft 17 kts 296°
2026-05-09 04:02 -20.42430 57.67102 209 ft 19 kts 274°
2026-05-09 04:02 -20.42428 57.66959 214 ft 21 kts 292°
2026-05-09 04:02 -20.42401 57.66914 212 ft 0 kts 320°
2026-05-09 04:02 -20.42386 57.66912 219 ft 5 kts 355°
2026-05-09 04:03 -20.42345 57.66931 213 ft 4 kts 66°
2026-05-09 04:03 -20.42350 57.66955 212 ft 0 kts 117°
2026-05-09 04:03 -20.42396 57.67052 215 ft 47 kts 117°
2026-05-09 04:04 -20.42661 57.67600 210 ft 116 kts 117°
2026-05-09 04:04 -20.43122 57.68558 195 ft 174 kts 117°
2026-05-09 04:04 -20.43701 57.69762 808 ft 174 kts 117°
2026-05-09 04:04 -20.44363 57.70840 1378 ft 180 kts 134°
2026-05-09 04:05 -20.45534 57.71359 1472 ft 194 kts 181°
2026-05-09 04:05 -20.46840 57.70860 1633 ft 210 kts 216°
2026-05-09 04:05 -20.47974 57.69787 1814 ft 226 kts 223°
2026-05-09 04:05 -20.49008 57.68434 1920 ft 248 kts 240°
2026-05-09 04:06 -20.49458 57.66870 2110 ft 263 kts 264°
2026-05-09 04:06 -20.49404 57.64890 2495 ft 272 kts 278°
2026-05-09 04:06 -20.49035 57.62891 2957 ft 278 kts 284°
2026-05-09 04:06 -20.48549 57.60902 3454 ft 282 kts 285°
2026-05-09 04:07 -20.48044 57.58876 3977 ft 284 kts 284°
2026-05-09 04:07 -20.47577 57.56838 4660 ft 278 kts 283°
2026-05-09 04:07 -20.47164 57.54850 5357 ft 273 kts 282°
2026-05-09 04:07 -20.46786 57.52869 5903 ft 273 kts 282°
2026-05-09 04:08 -20.46427 57.50874 6422 ft 275 kts 281°
2026-05-09 04:08 -20.46078 57.48867 6922 ft 276 kts 281°
2026-05-09 04:08 -20.45733 57.46843 7403 ft 279 kts 281°
2026-05-09 04:08 -20.45382 57.44789 7905 ft 282 kts 280°
2026-05-09 04:09 -20.45028 57.42733 8446 ft 284 kts 281°
2026-05-09 04:09 -20.44667 57.40654 8947 ft 287 kts 281°
2026-05-09 04:09 -20.44305 57.38548 9459 ft 290 kts 281°
2026-05-09 04:09 -20.43934 57.36435 9994 ft 290 kts 281°
2026-05-09 04:10 -20.43559 57.34313 10477 ft 292 kts 281°
2026-05-09 04:10 -20.43181 57.32181 10989 ft 293 kts 281°
2026-05-09 04:10 -20.42799 57.30039 11444 ft 297 kts 281°
2026-05-09 04:10 -20.42405 57.27836 11687 ft 309 kts 281°
2026-05-09 04:11 -20.41995 57.25544 11939 ft 321 kts 281°
2026-05-09 04:11 -20.41572 57.23163 12187 ft 333 kts 281°
2026-05-09 04:11 -20.41139 57.20698 12427 ft 344 kts 281°
2026-05-09 04:11 -20.40693 57.18155 12659 ft 354 kts 281°
2026-05-09 04:12 -20.40234 57.15539 12899 ft 364 kts 281°
2026-05-09 04:12 -20.39767 57.12887 13104 ft 374 kts 281°
2026-05-09 04:12 -20.39280 57.10133 13313 ft 383 kts 281°
2026-05-09 04:12 -20.38782 57.07321 13513 ft 391 kts 281°
2026-05-09 04:13 -20.38270 57.04440 13757 ft 397 kts 281°
2026-05-09 04:13 -20.37754 57.01535 14064 ft 401 kts 281°
2026-05-09 04:13 -20.37233 56.98605 14395 ft 404 kts 281°
2026-05-09 04:13 -20.36706 56.95650 14693 ft 407 kts 281°
2026-05-09 04:14 -20.36177 56.92679 15059 ft 409 kts 281°
2026-05-09 04:14 -20.35645 56.89696 15438 ft 410 kts 281°
2026-05-09 04:14 -20.35115 56.86734 16027 ft 405 kts 281°
2026-05-09 04:14 -20.34588 56.83786 16382 ft 407 kts 281°
2026-05-09 04:15 -20.34056 56.80813 16671 ft 410 kts 281°
2026-05-09 04:15 -20.33520 56.77819 16983 ft 412 kts 281°
2026-05-09 04:15 -20.32980 56.74813 17294 ft 414 kts 281°
2026-05-09 04:15 -20.32438 56.71794 17629 ft 415 kts 281°
2026-05-09 04:16 -20.31901 56.68806 17938 ft 417 kts 281°
2026-05-09 04:16 -20.31347 56.65722 18241 ft 419 kts 281°
2026-05-09 04:16 -20.30803 56.62703 18532 ft 421 kts 281°
2026-05-09 04:16 -20.30250 56.59634 18824 ft 423 kts 281°
2026-05-09 04:17 -20.29692 56.56542 19113 ft 425 kts 281°
2026-05-09 04:17 -20.29132 56.53437 19400 ft 428 kts 281°
2026-05-09 04:17 -20.28569 56.50324 19684 ft 429 kts 281°
2026-05-09 04:17 -20.28003 56.47197 19953 ft 431 kts 281°
2026-05-09 04:18 -20.27433 56.44056 20218 ft 433 kts 281°
2026-05-09 04:18 -20.26859 56.40891 20480 ft 435 kts 281°
2026-05-09 04:18 -20.26285 56.37729 20736 ft 437 kts 281°
2026-05-09 04:18 -20.25705 56.34543 20994 ft 439 kts 281°
2026-05-09 04:19 -20.25124 56.31352 21242 ft 441 kts 281°
2026-05-09 04:19 -20.24545 56.28172 21414 ft 444 kts 281°
2026-05-09 04:19 -20.23948 56.24900 21722 ft 445 kts 281°
2026-05-09 04:19 -20.23366 56.21711 22047 ft 444 kts 281°
2026-05-09 04:20 -20.22775 56.18478 22349 ft 445 kts 281°
2026-05-09 04:20 -20.22183 56.15245 22657 ft 445 kts 281°
2026-05-09 04:20 -20.21590 56.12009 22914 ft 446 kts 281°
2026-05-09 04:20 -20.20994 56.08764 23137 ft 448 kts 281°
2026-05-09 04:21 -20.20394 56.05493 23358 ft 450 kts 281°
2026-05-09 04:21 -20.19795 56.02215 23583 ft 452 kts 281°
2026-05-09 04:21 -20.18853 55.95576 24025 ft 455 kts 277°
2026-05-09 04:22 -20.18461 55.92226 24241 ft 457 kts 277°
2026-05-09 04:22 -20.18068 55.88862 24465 ft 459 kts 277°
2026-05-09 04:22 -20.17662 55.85491 24699 ft 460 kts 277°
2026-05-09 04:22 -20.17242 55.82114 24938 ft 462 kts 277°
2026-05-09 04:23 -20.16956 55.79869 25099 ft 463 kts 277°
2026-05-09 04:23 -20.16516 55.76470 25339 ft 464 kts 278°
2026-05-09 04:23 -20.16071 55.73059 25581 ft 466 kts 278°
2026-05-09 04:23 -20.15621 55.69641 25835 ft 467 kts 278°
2026-05-09 04:24 -20.15020 55.65100 26181 ft 470 kts 278°
2026-05-09 04:24 -20.14711 55.62767 26351 ft 471 kts 278°
2026-05-09 04:24 -20.14106 55.58190 26709 ft 473 kts 278°
2026-05-09 04:24 -20.13647 55.54717 26980 ft 475 kts 278°
2026-05-09 04:25 -20.13187 55.51236 27276 ft 476 kts 277°
2026-05-09 04:25 -20.12868 55.48889 27635 ft 472 kts 278°
2026-05-09 04:25 -20.12385 55.45435 27987 ft 472 kts 278°
2026-05-09 04:25 -20.11900 55.42018 28197 ft 475 kts 278°
2026-05-09 04:26 -20.11403 55.38534 28435 ft 478 kts 278°
2026-05-09 04:26 -20.10903 55.35034 28681 ft 479 kts 278°
2026-05-09 04:26 -20.10403 55.31522 28918 ft 481 kts 278°
2026-05-09 04:26 -20.09904 55.27998 29180 ft 482 kts 278°
2026-05-09 04:27 -20.09404 55.24474 29402 ft 483 kts 278°
2026-05-09 04:27 -20.08902 55.20937 29612 ft 485 kts 278°
2026-05-09 04:27 -20.08395 55.17376 29819 ft 487 kts 278°
2026-05-09 04:27 -20.07886 55.13815 30042 ft 488 kts 278°
2026-05-09 04:28 -20.07376 55.10237 30238 ft 489 kts 278°
2026-05-09 04:28 -20.06873 55.06698 30456 ft 490 kts 278°
2026-05-09 04:28 -20.06360 55.03116 30651 ft 491 kts 278°
2026-05-09 04:28 -20.05843 54.99517 30831 ft 493 kts 278°
2026-05-09 04:29 -20.05325 54.95915 31001 ft 494 kts 278°
2026-05-09 04:29 -20.04803 54.92296 31209 ft 494 kts 278°
2026-05-09 04:29 -20.04284 54.88694 31475 ft 493 kts 278°
2026-05-09 04:29 -20.03765 54.85097 31755 ft 492 kts 278°
2026-05-09 04:30 -20.03246 54.81501 31990 ft 491 kts 278°
2026-05-09 04:30 -20.02727 54.77918 32211 ft 491 kts 277°
2026-05-09 04:30 -20.02207 54.74355 32678 ft 483 kts 276°
2026-05-09 04:30 -20.01692 54.70868 33358 ft 472 kts 276°
2026-05-09 04:31 -20.01199 54.67429 33568 ft 472 kts 276°
2026-05-09 04:31 -20.00200 54.60507 33796 ft 474 kts 276°
2026-05-09 04:31 -19.99698 54.57041 33952 ft 474 kts 276°
2026-05-09 04:32 -19.99190 54.53574 34034 ft 476 kts 276°
2026-05-09 04:32 -19.98175 54.46643 34130 ft 481 kts 276°
2026-05-09 04:33 -19.97140 54.39599 34128 ft 482 kts 275°
2026-05-09 04:33 -19.96103 54.32573 34129 ft 481 kts 275°
2026-05-09 04:34 -19.95066 54.25556 34128 ft 481 kts 275°
2026-05-09 04:34 -19.94027 54.18532 34128 ft 481 kts 275°
2026-05-09 04:35 -19.92985 54.11517 34120 ft 480 kts 275°
2026-05-09 04:35 -19.91942 54.04510 34119 ft 480 kts 275°
2026-05-09 04:36 -19.90904 53.97550 34119 ft 480 kts 275°
2026-05-09 04:36 -19.89854 53.90550 34119 ft 480 kts 275°
2026-05-09 04:37 -19.88802 53.83549 34119 ft 480 kts 275°
2026-05-09 04:37 -19.87747 53.76541 34119 ft 480 kts 275°
2026-05-09 04:38 -19.86803 53.70281 34119 ft 480 kts 275°
2026-05-09 04:38 -19.85743 53.63276 34119 ft 480 kts 275°
2026-05-09 04:39 -19.84681 53.56275 34119 ft 481 kts 276°
2026-05-09 04:39 -19.83610 53.49256 34119 ft 481 kts 276°
2026-05-09 04:40 -19.82542 53.42250 34119 ft 481 kts 276°
2026-05-09 04:40 -19.81471 53.35240 34119 ft 481 kts 276°
2026-05-09 04:41 -19.80402 53.28275 34119 ft 481 kts 276°
2026-05-09 04:41 -19.79325 53.21269 34119 ft 481 kts 276°
2026-05-09 04:42 -19.78245 53.14272 34119 ft 481 kts 276°
2026-05-09 04:42 -19.77161 53.07252 34119 ft 481 kts 276°
2026-05-09 04:43 -19.76076 53.00260 34110 ft 481 kts 276°
2026-05-09 04:43 -19.74986 52.93250 34110 ft 481 kts 276°
2026-05-09 04:44 -19.73904 52.86270 34108 ft 478 kts 276°
2026-05-09 04:44 -19.72808 52.79284 34110 ft 480 kts 276°
2026-05-09 04:45 -19.71710 52.72291 34109 ft 480 kts 276°
2026-05-09 04:45 -19.70620 52.65352 34111 ft 480 kts 276°
2026-05-09 04:46 -19.69520 52.58368 34105 ft 479 kts 276°
2026-05-09 04:46 -19.68419 52.51401 34111 ft 478 kts 276°
2026-05-09 04:47 -19.67317 52.44442 34109 ft 478 kts 276°
2026-05-09 04:47 -19.66216 52.37481 34112 ft 478 kts 276°
2026-05-09 04:48 -19.65107 52.30526 34107 ft 477 kts 276°
2026-05-09 04:48 -19.64000 52.23587 34110 ft 477 kts 276°
2026-05-09 04:49 -19.62890 52.16660 34109 ft 477 kts 276°
2026-05-09 04:49 -19.61777 52.09717 34109 ft 477 kts 276°
2026-05-09 04:50 -19.60671 52.02835 34111 ft 477 kts 276°
2026-05-09 04:50 -19.59554 51.95905 34110 ft 476 kts 276°
2026-05-09 04:51 -19.58437 51.88984 34116 ft 477 kts 276°
2026-05-09 04:51 -19.57316 51.82058 34109 ft 477 kts 276°
2026-05-09 04:52 -19.56189 51.75122 34106 ft 478 kts 276°
2026-05-09 04:52 -19.55059 51.68177 34100 ft 478 kts 276°
2026-05-09 04:53 -19.53925 51.61234 34100 ft 478 kts 276°
2026-05-09 04:53 -19.52787 51.54289 34098 ft 478 kts 276°
2026-05-09 04:54 -19.51648 51.47340 34101 ft 479 kts 277°
2026-05-09 04:54 -19.50507 51.40384 34100 ft 479 kts 277°
2026-05-09 04:55 -19.49361 51.33422 34101 ft 479 kts 277°
2026-05-09 04:55 -19.48221 51.26515 34101 ft 480 kts 277°
2026-05-09 04:56 -19.47067 51.19551 34100 ft 480 kts 277°
2026-05-09 04:56 -19.45904 51.12575 34100 ft 480 kts 277°
2026-05-09 04:57 -19.44742 51.05598 34100 ft 480 kts 277°
2026-05-09 04:57 -19.43583 50.98633 34101 ft 481 kts 277°
2026-05-09 04:58 -19.42416 50.91662 34101 ft 481 kts 277°
2026-05-09 04:58 -19.41255 50.84737 34100 ft 480 kts 277°
2026-05-09 04:59 -19.40085 50.77771 34101 ft 481 kts 277°
2026-05-09 04:59 -19.38910 50.70793 34101 ft 481 kts 277°
2026-05-09 05:00 -19.37736 50.63839 34101 ft 481 kts 277°
2026-05-09 05:00 -19.36555 50.56861 34101 ft 481 kts 277°
2026-05-09 05:01 -19.35372 50.49892 34101 ft 480 kts 277°
2026-05-09 05:01 -19.34186 50.42936 34101 ft 480 kts 277°
2026-05-09 05:02 -19.33000 50.35973 34101 ft 480 kts 277°
2026-05-09 05:02 -19.31814 50.29018 34101 ft 480 kts 277°
2026-05-09 05:03 -19.30623 50.22061 34101 ft 480 kts 277°
2026-05-09 05:03 -19.29432 50.15113 34101 ft 480 kts 278°
2026-05-09 05:04 -19.28242 50.08198 34101 ft 481 kts 278°
2026-05-09 05:04 -19.27039 50.01238 34101 ft 481 kts 278°
2026-05-09 05:05 -19.25835 49.94289 34101 ft 480 kts 278°
2026-05-09 05:05 -19.24626 49.87328 34101 ft 480 kts 278°
2026-05-09 05:06 -19.23419 49.80386 34101 ft 480 kts 278°
2026-05-09 05:06 -19.22207 49.73442 34101 ft 480 kts 278°
2026-05-09 05:07 -19.20996 49.66501 34100 ft 480 kts 278°
2026-05-09 05:07 -19.19781 49.59556 34101 ft 481 kts 278°
2026-05-09 05:08 -19.18563 49.52600 34100 ft 481 kts 278°
2026-05-09 05:08 -19.17345 49.45697 34100 ft 480 kts 278°
2026-05-09 05:09 -19.16119 49.38751 34101 ft 480 kts 278°
2026-05-09 05:09 -19.14893 49.31805 34128 ft 480 kts 278°
2026-05-09 05:10 -19.13665 49.24865 34146 ft 480 kts 278°
2026-05-09 05:10 -19.12433 49.17925 34147 ft 481 kts 278°
2026-05-09 05:11 -19.11196 49.10980 34147 ft 480 kts 279°
2026-05-09 05:11 -19.09967 49.04094 34148 ft 480 kts 279°
2026-05-09 05:12 -19.08720 48.97102 34156 ft 480 kts 279°
2026-05-09 05:12 -19.07481 48.90165 34155 ft 480 kts 279°
2026-05-09 05:13 -19.06244 48.83284 34163 ft 479 kts 279°
2026-05-09 05:13 -19.04996 48.76362 34165 ft 480 kts 279°
2026-05-09 05:14 -19.03746 48.69428 34175 ft 480 kts 279°
2026-05-09 05:14 -19.02495 48.62492 34181 ft 480 kts 279°
2026-05-09 05:15 -19.01238 48.55564 34190 ft 480 kts 279°
2026-05-09 05:15 -18.99983 48.48642 34193 ft 480 kts 279°
2026-05-09 05:16 -18.98724 48.41715 34200 ft 480 kts 279°
2026-05-09 05:16 -18.97463 48.34801 34207 ft 480 kts 279°
2026-05-09 05:17 -18.96197 48.27875 34230 ft 480 kts 279°
2026-05-09 05:17 -18.94924 48.20940 34221 ft 480 kts 279°
2026-05-09 05:18 -18.93524 48.14088 34233 ft 481 kts 281°
2026-05-09 05:18 -18.92029 48.07161 34239 ft 480 kts 281°
2026-05-09 05:19 -18.90570 48.00320 34245 ft 481 kts 281°
2026-05-09 05:19 -18.89119 47.93423 34249 ft 481 kts 281°
2026-05-09 05:20 -18.87663 47.86542 34258 ft 480 kts 281°
2026-05-09 05:20 -18.86213 47.79658 34256 ft 480 kts 281°
2026-05-09 05:21 -18.84772 47.72810 34257 ft 481 kts 281°
2026-05-09 05:21 -18.83305 47.65872 34266 ft 481 kts 281°
2026-05-09 05:22 -18.81853 47.59031 34266 ft 481 kts 281°
2026-05-09 05:22 -18.80386 47.52135 34266 ft 481 kts 281°
2026-05-09 05:23 -18.78780 47.45279 34268 ft 481 kts 284°
2026-05-09 05:23 -18.76978 47.38477 34267 ft 482 kts 284°
2026-05-09 05:24 -18.75182 47.31669 34265 ft 482 kts 284°
2026-05-09 05:24 -18.73418 47.24857 34268 ft 481 kts 284°
2026-05-09 05:25 -18.71960 47.19190 34265 ft 481 kts 284°
2026-05-09 05:25 -18.69047 47.07861 34257 ft 481 kts 284°
2026-05-09 05:26 -18.67290 47.01048 34257 ft 481 kts 284°
2026-05-09 05:26 -18.65817 46.95346 34257 ft 481 kts 284°
2026-05-09 05:27 -18.64053 46.88532 34247 ft 482 kts 284°
2026-05-09 05:27 -18.62308 46.81797 34247 ft 482 kts 284°
2026-05-09 05:28 -18.60530 46.74942 34249 ft 482 kts 284°
2026-05-09 05:28 -18.58756 46.68120 34237 ft 482 kts 284°
2026-05-09 05:29 -18.56982 46.61308 34240 ft 483 kts 284°
2026-05-09 05:29 -18.55200 46.54479 34233 ft 483 kts 284°
2026-05-09 05:30 -18.53422 46.47680 34236 ft 483 kts 284°
2026-05-09 05:30 -18.51631 46.40833 34230 ft 484 kts 284°
2026-05-09 05:31 -18.49842 46.34000 34218 ft 484 kts 284°
2026-05-09 05:31 -18.48059 46.27210 34218 ft 484 kts 284°
2026-05-09 05:32 -18.46263 46.20380 34217 ft 485 kts 284°
2026-05-09 05:32 -18.44462 46.13532 34211 ft 485 kts 284°
2026-05-09 05:33 -18.42659 46.06696 34201 ft 485 kts 284°
2026-05-09 05:33 -18.40851 45.99851 34202 ft 486 kts 284°
2026-05-09 05:34 -18.39040 45.92997 34201 ft 485 kts 285°
2026-05-09 05:34 -18.37228 45.86162 34194 ft 485 kts 284°
2026-05-09 05:35 -18.35414 45.79321 34192 ft 485 kts 285°
2026-05-09 05:35 -18.33608 45.72531 34186 ft 485 kts 285°
2026-05-09 05:36 -18.31790 45.65700 34184 ft 485 kts 285°
2026-05-09 05:36 -18.29967 45.58870 34177 ft 485 kts 285°
2026-05-09 05:37 -18.28143 45.52038 34175 ft 484 kts 285°
2026-05-09 05:37 -18.26321 45.45221 34173 ft 484 kts 285°
2026-05-09 05:38 -18.24496 45.38410 34166 ft 484 kts 285°
2026-05-09 05:38 -18.22675 45.31622 34164 ft 483 kts 285°
2026-05-09 05:39 -18.20848 45.24811 34158 ft 483 kts 285°
2026-05-09 05:39 -18.19036 45.18071 34165 ft 482 kts 285°
2026-05-09 05:40 -18.17207 45.11292 34165 ft 482 kts 285°
2026-05-09 05:40 -18.15377 45.04519 34159 ft 481 kts 285°
2026-05-09 05:41 -18.13549 44.97752 34157 ft 481 kts 285°
2026-05-09 05:41 -18.11721 44.90997 34157 ft 481 kts 285°
2026-05-09 05:42 -18.09945 44.84443 34158 ft 481 kts 285°
2026-05-09 05:42 -18.08109 44.77692 34147 ft 480 kts 285°
2026-05-09 05:43 -18.06274 44.70952 34147 ft 479 kts 285°
2026-05-09 05:43 -18.04452 44.64263 34147 ft 479 kts 285°
2026-05-09 05:44 -18.02616 44.57525 34148 ft 480 kts 285°
2026-05-09 05:44 -18.00778 44.50793 34148 ft 479 kts 285°
2026-05-09 05:45 -17.98935 44.44059 34138 ft 479 kts 285°
2026-05-09 05:45 -17.97086 44.37313 34138 ft 482 kts 285°
2026-05-09 05:46 -17.95229 44.30547 34137 ft 482 kts 285°
2026-05-09 05:46 -17.93370 44.23788 34137 ft 481 kts 285°
2026-05-09 05:47 -17.91524 44.17076 34137 ft 481 kts 285°
2026-05-09 05:47 -17.89662 44.10330 34137 ft 481 kts 285°
2026-05-09 05:48 -17.87802 44.03592 34138 ft 480 kts 285°
2026-05-09 05:48 -17.85945 43.96868 34129 ft 480 kts 285°
2026-05-09 05:49 -17.84082 43.90131 34128 ft 480 kts 285°
2026-05-09 05:49 -17.82216 43.83399 34128 ft 480 kts 285°
2026-05-09 05:50 -17.80345 43.76662 34128 ft 481 kts 285°
2026-05-09 05:50 -17.78472 43.69921 34129 ft 481 kts 285°
2026-05-09 05:51 -17.76594 43.63180 34129 ft 481 kts 285°
2026-05-09 05:51 -17.74715 43.56443 34129 ft 482 kts 285°
2026-05-09 05:52 -17.72828 43.49690 34128 ft 482 kts 285°
2026-05-09 05:52 -17.70952 43.42984 34120 ft 483 kts 286°
2026-05-09 05:53 -17.69061 43.36227 34119 ft 483 kts 286°
2026-05-09 05:53 -17.67167 43.29470 34119 ft 483 kts 286°
2026-05-09 05:54 -17.65266 43.22702 34119 ft 484 kts 286°
2026-05-09 05:54 -17.63362 43.15930 34119 ft 484 kts 286°
2026-05-09 05:55 -17.61458 43.09169 34119 ft 484 kts 286°
2026-05-09 05:55 -17.59547 43.02401 34119 ft 484 kts 286°
2026-05-09 05:56 -17.57635 42.95632 34119 ft 484 kts 286°
2026-05-09 05:56 -17.55723 42.88867 34119 ft 484 kts 286°
2026-05-09 05:57 -17.53809 42.82111 34119 ft 484 kts 286°
2026-05-09 05:57 -17.51892 42.75346 34110 ft 484 kts 286°
2026-05-09 05:58 -17.49974 42.68593 34110 ft 484 kts 286°
2026-05-09 05:58 -17.48062 42.61873 34110 ft 484 kts 287°
2026-05-09 05:59 -17.46138 42.55121 34110 ft 484 kts 287°
2026-05-09 05:59 -17.44214 42.48369 34110 ft 484 kts 286°
2026-05-09 06:00 -17.42287 42.41618 34110 ft 484 kts 287°
2026-05-09 06:00 -17.40356 42.34871 34110 ft 483 kts 287°
2026-05-09 06:01 -17.38429 42.28144 34110 ft 483 kts 287°
2026-05-09 06:01 -17.36496 42.21409 34110 ft 483 kts 287°
2026-05-09 06:02 -17.34562 42.14680 34111 ft 483 kts 287°
2026-05-09 06:02 -17.32626 42.07949 34109 ft 483 kts 287°
2026-05-09 06:03 -17.30692 42.01227 34110 ft 484 kts 287°
2026-05-09 06:03 -17.28762 41.94529 34104 ft 483 kts 287°
2026-05-09 06:04 -17.26817 41.87798 34100 ft 483 kts 287°
2026-05-09 06:04 -17.24873 41.81077 34101 ft 483 kts 287°
2026-05-09 06:05 -17.22929 41.74358 34100 ft 483 kts 287°
2026-05-09 06:05 -17.21003 41.67632 34107 ft 482 kts 285°
2026-05-09 06:06 -17.19476 41.60828 34119 ft 480 kts 282°
2026-05-09 06:06 -17.18087 41.53999 34119 ft 480 kts 282°
2026-05-09 06:07 -17.16641 41.47182 34110 ft 480 kts 283°
2026-05-09 06:07 -17.15144 41.40379 34110 ft 480 kts 283°
2026-05-09 06:08 -17.13644 41.33618 34110 ft 480 kts 283°
2026-05-09 06:08 -17.12133 41.26819 34110 ft 480 kts 283°
2026-05-09 06:09 -17.10624 41.20024 34110 ft 480 kts 283°
2026-05-09 06:09 -17.09114 41.13228 34110 ft 480 kts 283°
2026-05-09 06:10 -17.07598 41.06430 34110 ft 480 kts 283°
2026-05-09 06:10 -17.06080 40.99631 34110 ft 480 kts 283°
2026-05-09 06:11 -17.04563 40.92848 34110 ft 479 kts 283°
2026-05-09 06:11 -17.03046 40.86073 34110 ft 479 kts 283°
2026-05-09 06:12 -17.01527 40.79300 34110 ft 479 kts 283°
2026-05-09 06:12 -17.00006 40.72526 34110 ft 479 kts 283°
2026-05-09 06:13 -16.98480 40.65747 34110 ft 479 kts 283°
2026-05-09 06:13 -16.96967 40.59021 34110 ft 479 kts 284°
2026-05-09 06:14 -16.95437 40.52254 34103 ft 479 kts 284°
2026-05-09 06:14 -16.93906 40.45487 34101 ft 479 kts 284°
2026-05-09 06:15 -16.92373 40.38719 34101 ft 479 kts 284°
2026-05-09 06:15 -16.90839 40.31952 34101 ft 479 kts 284°
2026-05-09 06:16 -16.89296 40.25198 34101 ft 479 kts 284°
2026-05-09 06:16 -16.87748 40.18426 34101 ft 480 kts 284°
2026-05-09 06:17 -16.86199 40.11655 34101 ft 480 kts 284°
2026-05-09 06:17 -16.84646 40.04878 34101 ft 480 kts 284°
2026-05-09 06:18 -16.83090 39.98098 34100 ft 480 kts 284°
2026-05-09 06:18 -16.81537 39.91339 34100 ft 479 kts 284°
2026-05-09 06:19 -16.79994 39.84636 34102 ft 479 kts 284°
2026-05-09 06:19 -16.78434 39.77872 34101 ft 479 kts 284°
2026-05-09 06:20 -16.76872 39.71107 34100 ft 479 kts 284°
2026-05-09 06:20 -16.75308 39.64345 34100 ft 479 kts 284°
2026-05-09 06:21 -16.73741 39.57584 34101 ft 479 kts 284°
2026-05-09 06:21 -16.72173 39.50822 34101 ft 479 kts 284°
2026-05-09 06:22 -16.70593 39.44077 34100 ft 479 kts 285°
2026-05-09 06:22 -16.69009 39.37381 34100 ft 478 kts 284°
2026-05-09 06:23 -16.67419 39.30654 34101 ft 478 kts 284°
2026-05-09 06:23 -16.65826 39.23916 34103 ft 478 kts 284°
2026-05-09 06:24 -16.64230 39.17182 34110 ft 478 kts 284°
2026-05-09 06:24 -16.62637 39.10466 34110 ft 478 kts 284°
2026-05-09 06:25 -16.61037 39.03732 34110 ft 477 kts 285°
2026-05-09 06:25 -16.59711 38.98152 34109 ft 477 kts 285°
2026-05-09 06:26 -16.58113 38.91441 34110 ft 477 kts 284°
2026-05-09 06:26 -16.56525 38.84736 34110 ft 477 kts 284°
2026-05-09 06:27 -16.54975 38.78013 34109 ft 477 kts 284°
2026-05-09 06:27 -16.53429 38.71287 34109 ft 477 kts 284°
2026-05-09 06:28 -16.51877 38.64566 34109 ft 477 kts 284°
2026-05-09 06:28 -16.50320 38.57846 34110 ft 477 kts 284°
2026-05-09 06:29 -16.48761 38.51126 34109 ft 477 kts 284°
2026-05-09 06:29 -16.47280 38.44377 34111 ft 478 kts 282°
2026-05-09 06:30 -16.45952 38.37591 34110 ft 478 kts 282°
2026-05-09 06:30 -16.44620 38.30808 34109 ft 478 kts 282°
2026-05-09 06:31 -16.43263 38.24022 34110 ft 478 kts 283°
2026-05-09 06:31 -16.41897 38.17283 34110 ft 479 kts 283°
2026-05-09 06:32 -16.40502 38.10496 34106 ft 479 kts 283°
2026-05-09 06:33 -16.38295 38.00351 34100 ft 479 kts 283°
2026-05-09 06:33 -16.36820 37.93587 34101 ft 479 kts 283°
2026-05-09 06:34 -16.34621 37.83441 34101 ft 479 kts 283°
2026-05-09 06:34 -16.33156 37.76678 34101 ft 478 kts 283°
2026-05-09 06:35 -16.31690 37.69933 34101 ft 478 kts 283°
2026-05-09 06:35 -16.30230 37.63233 34101 ft 478 kts 283°
2026-05-09 06:36 -16.28760 37.56487 34101 ft 478 kts 283°
2026-05-09 06:36 -16.27289 37.49748 34101 ft 477 kts 283°
2026-05-09 06:37 -16.25817 37.43021 34101 ft 477 kts 283°
2026-05-09 06:37 -16.24347 37.36303 34100 ft 476 kts 283°
2026-05-09 06:38 -16.22876 37.29593 34101 ft 475 kts 283°
2026-05-09 06:38 -16.21401 37.22889 34101 ft 475 kts 283°
2026-05-09 06:39 -16.19925 37.16185 34109 ft 475 kts 284°
2026-05-09 06:39 -16.18457 37.09519 34109 ft 474 kts 284°
2026-05-09 06:40 -16.16977 37.02814 34109 ft 474 kts 284°
2026-05-09 06:40 -16.15508 36.96177 34110 ft 473 kts 284°
2026-05-09 06:41 -16.14030 36.89509 34110 ft 473 kts 284°
2026-05-09 06:41 -16.12551 36.82845 34111 ft 473 kts 284°
2026-05-09 06:42 -16.11073 36.76193 34112 ft 473 kts 284°
2026-05-09 06:42 -16.09587 36.69519 34110 ft 473 kts 284°
2026-05-09 06:43 -16.08103 36.62857 34119 ft 473 kts 284°
2026-05-09 06:43 -16.06618 36.56198 34119 ft 473 kts 284°
2026-05-09 06:44 -16.05140 36.49584 34118 ft 474 kts 284°
2026-05-09 06:44 -16.03645 36.42907 34118 ft 474 kts 284°
2026-05-09 06:45 -16.02149 36.36235 34127 ft 473 kts 284°
2026-05-09 06:45 -16.00654 36.29577 34129 ft 474 kts 284°
2026-05-09 06:46 -15.99151 36.22905 34128 ft 474 kts 284°
2026-05-09 06:46 -15.97599 36.16234 34138 ft 474 kts 286°
2026-05-09 06:47 -15.95795 36.09645 34136 ft 474 kts 287°
2026-05-09 06:47 -15.93945 36.03070 34144 ft 474 kts 287°
2026-05-09 06:48 -15.92128 35.96490 34146 ft 474 kts 287°
2026-05-09 06:48 -15.90337 35.89902 34145 ft 474 kts 287°
2026-05-09 06:49 -15.88549 35.83311 34154 ft 474 kts 287°
2026-05-09 06:49 -15.86759 35.76727 34157 ft 474 kts 287°
2026-05-09 06:50 -15.85087 35.70149 34157 ft 474 kts 284°
2026-05-09 06:50 -15.83629 35.63470 34165 ft 475 kts 283°
2026-05-09 06:51 -15.82168 35.56781 34164 ft 475 kts 284°
2026-05-09 06:51 -15.80663 35.50094 34165 ft 475 kts 284°
2026-05-09 06:52 -15.79139 35.43418 34174 ft 475 kts 284°
2026-05-09 06:52 -15.77614 35.36741 34175 ft 475 kts 284°
2026-05-09 06:53 -15.76084 35.30065 34174 ft 476 kts 284°
2026-05-09 06:53 -15.74561 35.23430 34176 ft 476 kts 284°
2026-05-09 06:54 -15.73028 35.16748 34184 ft 476 kts 284°
2026-05-09 06:54 -15.71494 35.10066 34183 ft 476 kts 284°
2026-05-09 06:55 -15.69955 35.03382 34183 ft 476 kts 284°
2026-05-09 06:55 -15.68415 34.96706 34183 ft 476 kts 284°
2026-05-09 06:56 -15.67244 34.89954 34188 ft 477 kts 275°
2026-05-09 06:56 -15.66857 34.83082 34184 ft 477 kts 274°
2026-05-09 06:57 -15.66588 34.76196 34184 ft 477 kts 274°
2026-05-09 06:57 -15.66324 34.69319 34183 ft 477 kts 274°
2026-05-09 06:58 -15.66044 34.62447 34174 ft 477 kts 274°
2026-05-09 06:58 -15.65753 34.55580 34175 ft 477 kts 274°
2026-05-09 06:59 -15.65460 34.48714 34173 ft 476 kts 274°
2026-05-09 06:59 -15.65168 34.41895 34166 ft 476 kts 274°
2026-05-09 07:00 -15.64871 34.35044 34157 ft 476 kts 274°
2026-05-09 07:00 -15.64574 34.28184 34156 ft 475 kts 274°
2026-05-09 07:01 -15.64276 34.21340 34146 ft 475 kts 274°
2026-05-09 07:01 -15.63974 34.14502 34139 ft 475 kts 274°
2026-05-09 07:02 -15.63669 34.07661 34129 ft 475 kts 274°
2026-05-09 07:02 -15.63363 34.00820 34123 ft 475 kts 274°
2026-05-09 07:03 -15.63054 33.93984 34119 ft 474 kts 274°
2026-05-09 07:03 -15.62726 33.87160 34110 ft 473 kts 274°
2026-05-09 07:04 -15.62395 33.80337 34110 ft 473 kts 274°
2026-05-09 07:04 -15.62069 33.73510 34101 ft 474 kts 274°
2026-05-09 07:05 -15.61742 33.66696 34117 ft 473 kts 274°
2026-05-09 07:05 -15.61415 33.59920 34119 ft 473 kts 274°
2026-05-09 07:06 -15.61101 33.53108 34110 ft 473 kts 274°
2026-05-09 07:06 -15.60787 33.46289 34117 ft 473 kts 274°
2026-05-09 07:07 -15.60468 33.39485 34119 ft 473 kts 274°
2026-05-09 07:07 -15.60144 33.32672 34119 ft 472 kts 274°
2026-05-09 07:08 -15.59821 33.25871 34120 ft 473 kts 274°
2026-05-09 07:08 -15.59494 33.19059 34122 ft 472 kts 274°
2026-05-09 07:09 -15.59164 33.12259 34119 ft 471 kts 274°
2026-05-09 07:09 -15.58834 33.05477 34128 ft 471 kts 274°
2026-05-09 07:10 -15.58502 32.98698 34129 ft 470 kts 274°
2026-05-09 07:10 -15.58181 32.91918 34127 ft 470 kts 274°
2026-05-09 07:11 -15.57864 32.85163 34138 ft 469 kts 274°
2026-05-09 07:11 -15.57545 32.78403 34137 ft 468 kts 274°
2026-05-09 07:12 -15.57225 32.71663 34136 ft 468 kts 274°
2026-05-09 07:12 -15.56905 32.64977 34144 ft 467 kts 274°
2026-05-09 07:13 -15.56598 32.58254 34146 ft 466 kts 274°
2026-05-09 07:13 -15.56289 32.51537 34138 ft 465 kts 274°
2026-05-09 07:14 -15.55978 32.44840 34157 ft 465 kts 274°
2026-05-09 07:14 -15.55662 32.38149 34156 ft 464 kts 274°
2026-05-09 07:15 -15.55343 32.31462 34161 ft 464 kts 274°
2026-05-09 07:15 -15.55023 32.24791 34165 ft 463 kts 274°
2026-05-09 07:16 -15.54701 32.18119 34165 ft 463 kts 274°
2026-05-09 07:16 -15.54378 32.11459 34170 ft 462 kts 274°
2026-05-09 07:17 -15.54053 32.04849 34174 ft 462 kts 274°
2026-05-09 07:17 -15.53728 31.98203 34175 ft 462 kts 274°
2026-05-09 07:18 -15.53401 31.91551 34173 ft 461 kts 274°
2026-05-09 07:18 -15.53073 31.84911 34183 ft 461 kts 274°
2026-05-09 07:19 -15.52741 31.78285 34183 ft 461 kts 274°
2026-05-09 07:19 -15.52408 31.71647 34183 ft 462 kts 274°
2026-05-09 07:20 -15.52064 31.65015 34190 ft 461 kts 274°
2026-05-09 07:20 -15.51702 31.58347 34195 ft 462 kts 274°
2026-05-09 07:21 -15.51339 31.51693 34197 ft 462 kts 274°
2026-05-09 07:21 -15.50983 31.45088 34200 ft 462 kts 274°
2026-05-09 07:22 -15.50627 31.38439 34199 ft 461 kts 274°
2026-05-09 07:22 -15.50325 31.32916 34201 ft 462 kts 274°
2026-05-09 07:23 -15.49960 31.26264 34202 ft 463 kts 274°
2026-05-09 07:23 -15.49593 31.19602 34208 ft 462 kts 274°
2026-05-09 07:24 -15.49224 31.12949 34212 ft 462 kts 274°
2026-05-09 07:24 -15.48855 31.06294 34215 ft 462 kts 274°
2026-05-09 07:25 -15.48482 30.99644 34249 ft 462 kts 274°
2026-05-09 07:25 -15.48109 30.92998 34248 ft 462 kts 274°
2026-05-09 07:26 -15.47735 30.86389 34250 ft 462 kts 274°
2026-05-09 07:26 -15.47355 30.79696 34259 ft 462 kts 274°
2026-05-09 07:27 -15.46981 30.73091 34257 ft 462 kts 274°
2026-05-09 07:27 -15.46606 30.66438 34259 ft 461 kts 274°
2026-05-09 07:28 -15.46229 30.59799 34257 ft 461 kts 274°
2026-05-09 07:28 -15.45849 30.53168 34259 ft 461 kts 274°
2026-05-09 07:29 -15.45468 30.46538 34254 ft 461 kts 274°
2026-05-09 07:29 -15.45089 30.39906 34248 ft 461 kts 274°
2026-05-09 07:30 -15.44711 30.33277 34248 ft 461 kts 274°
2026-05-09 07:30 -15.44325 30.26657 34248 ft 460 kts 274°
2026-05-09 07:31 -15.43938 30.20043 34248 ft 460 kts 274°
2026-05-09 07:31 -15.43549 30.13431 34248 ft 459 kts 274°
2026-05-09 07:32 -15.43159 30.06818 34248 ft 459 kts 274°
2026-05-09 07:32 -15.42771 30.00255 34248 ft 460 kts 274°
2026-05-09 07:33 -15.42177 29.90347 34247 ft 458 kts 274°
2026-05-09 07:34 -15.41781 29.83757 34248 ft 458 kts 274°
2026-05-09 07:34 -15.41383 29.77166 34247 ft 458 kts 274°
2026-05-09 07:35 -15.40983 29.70571 34245 ft 459 kts 274°
2026-05-09 07:35 -15.40580 29.63960 34248 ft 459 kts 274°
2026-05-09 07:36 -15.40175 29.57357 34236 ft 459 kts 275°
2026-05-09 07:36 -15.39770 29.50799 34238 ft 459 kts 274°
2026-05-09 07:37 -15.39362 29.44196 34236 ft 459 kts 274°
2026-05-09 07:37 -15.38955 29.37595 34236 ft 459 kts 274°
2026-05-09 07:38 -15.38544 29.31004 34236 ft 459 kts 274°
2026-05-09 07:38 -15.38131 29.24404 34239 ft 459 kts 274°
2026-05-09 07:39 -15.37716 29.17811 34237 ft 459 kts 274°
2026-05-09 07:39 -15.37298 29.11221 34240 ft 458 kts 274°
2026-05-09 07:40 -15.36878 29.04635 34236 ft 458 kts 274°
2026-05-09 07:40 -15.36459 28.98059 34236 ft 457 kts 274°
2026-05-09 07:41 -15.36035 28.91480 34239 ft 458 kts 274°
2026-05-09 07:41 -15.35611 28.84906 34244 ft 457 kts 274°
2026-05-09 07:42 -15.35188 28.78385 34236 ft 456 kts 274°
2026-05-09 07:42 -15.34758 28.71785 34235 ft 456 kts 274°
2026-05-09 07:43 -15.34326 28.65230 34236 ft 456 kts 274°
2026-05-09 07:43 -15.33902 28.58728 34241 ft 455 kts 274°
2026-05-09 07:44 -15.33472 28.52191 34237 ft 455 kts 274°
2026-05-09 07:44 -15.33037 28.45658 34244 ft 454 kts 274°
2026-05-09 07:45 -15.31831 28.39252 34241 ft 454 kts 286°
2026-05-09 07:45 -15.29879 28.33038 34236 ft 454 kts 288°
2026-05-09 07:46 -15.27817 28.26850 34242 ft 454 kts 288°
2026-05-09 07:46 -15.25755 28.20666 34236 ft 454 kts 288°
2026-05-09 07:47 -15.23707 28.14477 34243 ft 454 kts 288°
2026-05-09 07:47 -15.21663 28.08287 34235 ft 454 kts 288°
2026-05-09 07:48 -15.19616 28.02091 34239 ft 455 kts 288°
2026-05-09 07:48 -15.17580 27.95937 34239 ft 455 kts 288°
2026-05-09 07:49 -15.15533 27.89755 34240 ft 455 kts 288°
2026-05-09 07:49 -15.13478 27.83554 34239 ft 455 kts 288°
2026-05-09 07:50 -15.11424 27.77360 34241 ft 455 kts 288°
2026-05-09 07:50 -15.09367 27.71166 34242 ft 455 kts 288°
2026-05-09 07:51 -15.07308 27.64968 34239 ft 456 kts 288°
2026-05-09 07:51 -15.05242 27.58762 34237 ft 457 kts 288°
2026-05-09 07:52 -15.03175 27.52556 34238 ft 456 kts 288°
2026-05-09 07:52 -15.01109 27.46356 34236 ft 457 kts 288°
2026-05-09 07:53 -14.99036 27.40148 34236 ft 457 kts 288°
2026-05-09 07:53 -14.96958 27.33929 34240 ft 457 kts 288°
2026-05-09 07:54 -14.94896 27.27764 34238 ft 457 kts 288°
2026-05-09 07:54 -14.92822 27.21569 34241 ft 457 kts 288°
2026-05-09 07:55 -14.90739 27.15352 34241 ft 457 kts 288°
2026-05-09 07:55 -14.88656 27.09141 34240 ft 457 kts 288°
2026-05-09 07:56 -14.86573 27.02940 34235 ft 457 kts 288°
2026-05-09 07:56 -14.84492 26.96743 34230 ft 457 kts 288°
2026-05-09 07:57 -14.82405 26.90545 34228 ft 458 kts 288°
2026-05-09 07:57 -14.80327 26.84368 34233 ft 458 kts 288°
2026-05-09 07:58 -14.78232 26.78155 34223 ft 457 kts 288°
2026-05-09 07:58 -14.76144 26.71974 34233 ft 457 kts 288°
2026-05-09 07:59 -14.74036 26.65740 34231 ft 457 kts 288°
2026-05-09 07:59 -14.71938 26.59531 34227 ft 458 kts 288°
2026-05-09 08:00 -14.69841 26.53325 34228 ft 457 kts 288°
2026-05-09 08:00 -14.67740 26.47123 34231 ft 458 kts 288°
2026-05-09 08:01 -14.65649 26.40954 34222 ft 458 kts 288°
2026-05-09 08:01 -14.63543 26.34746 34219 ft 458 kts 288°
2026-05-09 08:02 -14.61429 26.28536 34221 ft 458 kts 288°
2026-05-09 08:02 -14.59316 26.22327 34220 ft 459 kts 288°
2026-05-09 08:03 -14.57201 26.16110 34222 ft 459 kts 288°
2026-05-09 08:03 -14.55081 26.09893 34223 ft 459 kts 288°
2026-05-09 08:04 -14.52960 26.03679 34224 ft 459 kts 288°
2026-05-09 08:04 -14.50841 25.97466 34218 ft 459 kts 288°
2026-05-09 08:05 -14.48716 25.91246 34221 ft 459 kts 288°
2026-05-09 08:05 -14.46605 25.85075 34231 ft 459 kts 288°
2026-05-09 08:06 -14.44480 25.78861 34229 ft 460 kts 288°
2026-05-09 08:06 -14.42349 25.72646 34226 ft 459 kts 288°
2026-05-09 08:07 -14.40219 25.66439 34228 ft 459 kts 288°
2026-05-09 08:07 -14.38089 25.60236 34227 ft 459 kts 288°
2026-05-09 08:08 -14.35953 25.54024 34233 ft 459 kts 289°
2026-05-09 08:08 -14.33819 25.47820 34232 ft 459 kts 289°
2026-05-09 08:09 -14.31683 25.41615 34228 ft 459 kts 288°
2026-05-09 08:09 -14.29541 25.35405 34230 ft 459 kts 288°
2026-05-09 08:10 -14.27423 25.29256 34233 ft 458 kts 288°
2026-05-09 08:10 -14.25287 25.23069 34231 ft 458 kts 288°
2026-05-09 08:11 -14.23148 25.16886 34233 ft 458 kts 288°
2026-05-09 08:11 -14.21007 25.10701 34233 ft 458 kts 288°
2026-05-09 08:12 -14.17798 25.01438 34231 ft 457 kts 288°
2026-05-09 08:12 -14.15659 24.95271 34233 ft 458 kts 288°
2026-05-09 08:13 -14.13517 24.89090 34218 ft 458 kts 288°
2026-05-09 08:13 -14.11372 24.82918 34219 ft 458 kts 288°
2026-05-09 08:14 -14.09221 24.76742 34207 ft 458 kts 288°
2026-05-09 08:14 -14.07086 24.70605 34219 ft 458 kts 288°
2026-05-09 08:15 -14.04938 24.64435 34217 ft 458 kts 288°
2026-05-09 08:15 -14.02784 24.58256 34213 ft 458 kts 288°
2026-05-09 08:16 -14.00629 24.52085 34216 ft 458 kts 288°
2026-05-09 08:16 -13.98475 24.45917 34217 ft 459 kts 288°
2026-05-09 08:17 -13.96310 24.39722 34223 ft 460 kts 288°
2026-05-09 08:17 -13.94144 24.33533 34228 ft 460 kts 288°
2026-05-09 08:18 -13.91979 24.27352 34224 ft 459 kts 288°
2026-05-09 08:18 -13.89809 24.21159 34224 ft 459 kts 288°
2026-05-09 08:19 -13.87641 24.14984 34237 ft 459 kts 288°
2026-05-09 08:19 -13.85475 24.08817 34245 ft 458 kts 288°
2026-05-09 08:20 -13.83672 24.03688 34223 ft 458 kts 288°
2026-05-09 08:20 -13.81504 23.97522 34215 ft 458 kts 288°
2026-05-09 08:21 -13.78979 23.90355 34223 ft 458 kts 288°
2026-05-09 08:21 -13.76805 23.84192 34224 ft 458 kts 288°
2026-05-09 08:22 -13.74632 23.78034 34216 ft 459 kts 288°
2026-05-09 08:22 -13.72818 23.72898 34222 ft 459 kts 288°
2026-05-09 08:23 -13.70638 23.66729 34224 ft 459 kts 288°
2026-05-09 08:23 -13.68454 23.60557 34217 ft 459 kts 288°
2026-05-09 08:24 -13.66272 23.54383 34219 ft 460 kts 288°
2026-05-09 08:24 -13.64083 23.48198 34216 ft 460 kts 289°
2026-05-09 08:25 -13.61891 23.42024 34218 ft 461 kts 289°
2026-05-09 08:25 -13.59693 23.35831 34220 ft 461 kts 289°
2026-05-09 08:26 -13.57494 23.29649 34212 ft 461 kts 289°
2026-05-09 08:26 -13.55308 23.23501 34223 ft 461 kts 289°
2026-05-09 08:27 -13.53105 23.17306 34221 ft 462 kts 289°
2026-05-09 08:27 -13.50901 23.11112 34226 ft 461 kts 289°
2026-05-09 08:28 -13.48693 23.04917 34226 ft 462 kts 289°
2026-05-09 08:28 -13.46483 22.98725 34231 ft 462 kts 289°
2026-05-09 08:29 -13.44265 22.92527 34232 ft 462 kts 289°
2026-05-09 08:29 -13.42053 22.86337 34239 ft 462 kts 289°
2026-05-09 08:30 -13.39839 22.80145 34232 ft 462 kts 289°
2026-05-09 08:30 -13.37623 22.73953 34226 ft 462 kts 289°
2026-05-09 08:31 -13.35420 22.67806 34226 ft 462 kts 289°
2026-05-09 08:31 -13.33200 22.61618 34225 ft 462 kts 289°
2026-05-09 08:32 -13.30978 22.55436 34233 ft 462 kts 289°
2026-05-09 08:33 -13.27645 22.46145 34236 ft 462 kts 289°
2026-05-09 08:33 -13.25417 22.39954 34242 ft 463 kts 289°
2026-05-09 08:34 -13.23186 22.33761 34237 ft 463 kts 289°
2026-05-09 08:34 -13.20957 22.27570 34243 ft 462 kts 289°
2026-05-09 08:35 -13.18724 22.21382 34237 ft 462 kts 289°
2026-05-09 08:35 -13.16504 22.15236 34235 ft 462 kts 289°
2026-05-09 08:36 -13.14270 22.09049 34240 ft 462 kts 289°
2026-05-09 08:36 -13.12030 22.02860 34226 ft 464 kts 289°
2026-05-09 08:37 -13.09043 21.96938 34440 ft 470 kts 300°
2026-05-09 08:37 -13.07308 21.94103 34687 ft 470 kts 300°
2026-05-09 08:37 -13.05539 21.91289 34916 ft 469 kts 301°
2026-05-09 08:37 -13.03753 21.88483 35139 ft 469 kts 301°
2026-05-09 08:38 -13.01970 21.85692 35375 ft 468 kts 301°
2026-05-09 08:38 -13.00187 21.82898 35549 ft 469 kts 301°
2026-05-09 08:38 -12.98404 21.80096 35745 ft 468 kts 301°
2026-05-09 08:38 -12.96628 21.77301 35958 ft 468 kts 301°
2026-05-09 08:39 -12.94859 21.74512 36162 ft 467 kts 301°
2026-05-09 08:39 -12.91324 21.68934 36249 ft 473 kts 301°
2026-05-09 08:40 -12.87730 21.63267 36249 ft 474 kts 301°
2026-05-09 08:40 -12.84133 21.57600 36245 ft 474 kts 301°
2026-05-09 08:41 -12.80536 21.51940 36245 ft 474 kts 301°
2026-05-09 08:41 -12.76941 21.46285 36250 ft 474 kts 301°
2026-05-09 08:42 -12.73337 21.40620 36246 ft 474 kts 301°
2026-05-09 08:42 -12.69736 21.34959 36256 ft 474 kts 301°
2026-05-09 08:43 -12.66154 21.29332 36257 ft 474 kts 301°
2026-05-09 08:43 -12.62548 21.23674 36257 ft 475 kts 301°
2026-05-09 08:44 -12.58938 21.18015 36257 ft 475 kts 301°
2026-05-09 08:44 -12.55325 21.12349 36257 ft 475 kts 301°
2026-05-09 08:45 -12.51705 21.06680 36257 ft 475 kts 301°
2026-05-09 08:45 -12.48085 21.01014 36257 ft 476 kts 301°
2026-05-09 08:46 -12.44463 20.95346 36257 ft 476 kts 301°
2026-05-09 08:46 -12.40843 20.89681 36258 ft 476 kts 301°
2026-05-09 08:47 -12.37220 20.84020 36267 ft 476 kts 301°
2026-05-09 08:47 -12.33592 20.78358 36267 ft 476 kts 301°
2026-05-09 08:48 -12.29988 20.72729 36266 ft 476 kts 301°
2026-05-09 08:48 -12.26359 20.67069 36268 ft 476 kts 301°
2026-05-09 08:49 -12.22727 20.61410 36266 ft 476 kts 301°
2026-05-09 08:49 -12.19086 20.55738 36268 ft 477 kts 301°
2026-05-09 08:50 -12.15450 20.50076 36265 ft 477 kts 301°
2026-05-09 08:50 -12.11810 20.44410 36267 ft 477 kts 301°
2026-05-09 08:51 -12.08164 20.38739 36266 ft 478 kts 301°
2026-05-09 08:51 -12.04512 20.33064 36267 ft 478 kts 301°
2026-05-09 08:52 -12.00857 20.27386 36266 ft 478 kts 301°
2026-05-09 08:52 -11.97206 20.21716 36266 ft 478 kts 301°
2026-05-09 08:53 -11.93545 20.16035 36267 ft 478 kts 301°
2026-05-09 08:53 -11.89885 20.10359 36266 ft 478 kts 301°
2026-05-09 08:54 -11.86222 20.04683 36266 ft 478 kts 301°
2026-05-09 08:54 -11.82585 19.99050 36266 ft 478 kts 301°
2026-05-09 08:55 -11.78929 19.93388 36267 ft 478 kts 301°
2026-05-09 08:55 -11.75661 19.87497 36268 ft 476 kts 293°
2026-05-09 08:56 -11.72966 19.81336 36265 ft 476 kts 291°
2026-05-09 08:56 -11.70352 19.75136 36267 ft 476 kts 291°
2026-05-09 08:57 -11.67730 19.68926 36267 ft 477 kts 291°
2026-05-09 08:57 -11.65098 19.62727 36266 ft 477 kts 291°
2026-05-09 08:58 -11.62453 19.56518 36267 ft 477 kts 291°
2026-05-09 08:58 -11.59825 19.50358 36266 ft 477 kts 291°
2026-05-09 08:59 -11.57174 19.44144 36266 ft 477 kts 291°
2026-05-09 08:59 -11.54527 19.37940 36266 ft 477 kts 291°
2026-05-09 09:00 -11.51879 19.31729 36265 ft 478 kts 291°
2026-05-09 09:00 -11.49225 19.25515 36266 ft 478 kts 291°
2026-05-09 09:01 -11.46569 19.19311 36259 ft 479 kts 291°
2026-05-09 09:01 -11.43898 19.13064 36257 ft 479 kts 291°
2026-05-09 09:02 -11.41232 19.06837 36257 ft 479 kts 291°
2026-05-09 09:02 -11.38565 19.00613 36258 ft 480 kts 291°
2026-05-09 09:03 -11.35911 18.94421 36257 ft 480 kts 291°
2026-05-09 09:03 -11.33241 18.88195 36258 ft 480 kts 291°
2026-05-09 09:04 -11.30567 18.81963 36253 ft 480 kts 291°
2026-05-09 09:04 -11.27891 18.75731 36256 ft 480 kts 291°
2026-05-09 09:05 -11.25214 18.69506 36256 ft 480 kts 291°
2026-05-09 09:05 -11.22532 18.63272 36245 ft 480 kts 291°
2026-05-09 09:06 -11.19850 18.57044 36249 ft 480 kts 291°
2026-05-09 09:06 -11.17162 18.50805 36246 ft 481 kts 291°
2026-05-09 09:07 -11.14475 18.44572 36248 ft 481 kts 291°
2026-05-09 09:07 -11.11788 18.38342 36249 ft 481 kts 291°
2026-05-09 09:08 -11.09116 18.32151 36250 ft 481 kts 291°
2026-05-09 09:08 -11.06427 18.25925 36239 ft 481 kts 291°
2026-05-09 09:09 -11.03735 18.19694 36237 ft 481 kts 291°
2026-05-09 09:09 -11.01039 18.13460 36237 ft 481 kts 291°
2026-05-09 09:10 -10.98341 18.07226 36239 ft 481 kts 291°
2026-05-09 09:10 -10.95641 18.00990 36238 ft 482 kts 291°
2026-05-09 09:11 -10.92936 17.94748 36239 ft 483 kts 291°
2026-05-09 09:11 -10.90227 17.88500 36229 ft 483 kts 291°
2026-05-09 09:12 -10.87537 17.82292 36229 ft 482 kts 291°
2026-05-09 09:12 -10.84832 17.76056 36229 ft 482 kts 291°
2026-05-09 09:13 -10.82114 17.69814 36229 ft 483 kts 291°
2026-05-09 09:13 -10.79391 17.63563 36229 ft 483 kts 292°
2026-05-09 09:14 -10.76677 17.57323 36223 ft 484 kts 291°
2026-05-09 09:14 -10.73962 17.51054 36220 ft 484 kts 291°
2026-05-09 09:15 -10.71225 17.44804 36221 ft 484 kts 291°
2026-05-09 09:15 -10.68497 17.38552 36219 ft 483 kts 291°
2026-05-09 09:16 -10.65771 17.32305 36221 ft 484 kts 291°
2026-05-09 09:16 -10.61694 17.22949 36211 ft 485 kts 291°
2026-05-09 09:17 -10.58962 17.16680 36211 ft 485 kts 291°
2026-05-09 09:17 -10.56231 17.10414 36211 ft 484 kts 291°
2026-05-09 09:18 -10.53496 17.04165 36211 ft 484 kts 291°
2026-05-09 09:18 -10.50755 16.97917 36203 ft 485 kts 291°
2026-05-09 09:19 -10.48010 16.91647 36202 ft 486 kts 291°
2026-05-09 09:19 -10.45258 16.85362 36202 ft 486 kts 291°
2026-05-09 09:20 -10.42526 16.79130 36202 ft 486 kts 291°
2026-05-09 09:20 -10.39771 16.72852 36197 ft 485 kts 291°
2026-05-09 09:21 -10.37025 16.66589 36188 ft 487 kts 292°
2026-05-09 09:21 -10.34261 16.60298 36195 ft 488 kts 292°
2026-05-09 09:22 -10.31494 16.54006 36182 ft 488 kts 292°
2026-05-09 09:22 -10.29198 16.48784 36186 ft 488 kts 292°
2026-05-09 09:23 -10.26428 16.42488 36185 ft 488 kts 292°
2026-05-09 09:23 -10.23657 16.36185 36182 ft 489 kts 292°
2026-05-09 09:24 -10.20882 16.29888 36172 ft 489 kts 292°
2026-05-09 09:24 -10.18103 16.23591 36174 ft 489 kts 292°
2026-05-09 09:25 -10.15322 16.17287 36167 ft 490 kts 292°
2026-05-09 09:25 -10.12559 16.11024 36165 ft 490 kts 292°
2026-05-09 09:26 -10.09775 16.04721 36158 ft 490 kts 292°
2026-05-09 09:26 -10.06986 15.98409 36157 ft 490 kts 292°
2026-05-09 09:27 -10.04200 15.92106 36149 ft 489 kts 292°
2026-05-09 09:27 -10.01410 15.85802 36145 ft 490 kts 292°
2026-05-09 09:28 -9.98621 15.79502 36142 ft 490 kts 292°
2026-05-09 09:28 -9.95830 15.73197 36134 ft 490 kts 292°
2026-05-09 09:29 -9.93039 15.66899 36073 ft 489 kts 292°
2026-05-09 09:29 -9.90245 15.60590 36071 ft 492 kts 292°
2026-05-09 09:30 -9.87448 15.54266 36064 ft 491 kts 292°
2026-05-09 09:30 -9.84663 15.48002 36068 ft 490 kts 292°
2026-05-09 09:31 -9.81858 15.41705 36056 ft 490 kts 292°
2026-05-09 09:32 -9.77653 15.32249 36060 ft 491 kts 292°
2026-05-09 09:32 -9.74855 15.25957 36040 ft 491 kts 292°
2026-05-09 09:33 -9.72041 15.19633 36044 ft 491 kts 292°
2026-05-09 09:33 -9.69228 15.13321 36037 ft 491 kts 292°
2026-05-09 09:34 -9.66417 15.07013 36034 ft 491 kts 292°
2026-05-09 09:34 -9.63611 15.00708 36036 ft 492 kts 292°
2026-05-09 09:36 -9.52360 14.75503 36018 ft 491 kts 292°
2026-05-09 09:37 -9.49540 14.69188 36018 ft 492 kts 293°
2026-05-09 09:37 -9.46715 14.62871 36007 ft 492 kts 293°
2026-05-09 09:38 -9.43888 14.56562 36006 ft 492 kts 293°
2026-05-09 09:38 -9.41062 14.50248 36006 ft 492 kts 293°
2026-05-09 09:39 -9.38241 14.43945 35998 ft 492 kts 293°
2026-05-09 09:39 -9.35436 14.37680 36003 ft 492 kts 293°
2026-05-09 09:40 -9.32607 14.31373 35992 ft 492 kts 293°
2026-05-09 09:40 -9.29778 14.25072 35994 ft 492 kts 293°
2026-05-09 09:41 -9.26946 14.18762 35993 ft 492 kts 293°
2026-05-09 09:41 -9.24113 14.12453 35988 ft 492 kts 293°
2026-05-09 09:42 -9.21278 14.06145 35980 ft 493 kts 293°
2026-05-09 09:42 -9.18439 13.99833 35980 ft 492 kts 293°
2026-05-09 09:43 -9.15599 13.93523 35981 ft 493 kts 293°
2026-05-09 09:43 -9.12771 13.87238 35980 ft 494 kts 293°
2026-05-09 09:44 -9.09926 13.80909 35971 ft 494 kts 293°
2026-05-09 09:44 -9.07070 13.74577 35971 ft 494 kts 293°
2026-05-09 09:45 -9.04214 13.68248 35972 ft 495 kts 293°
2026-05-09 09:45 -9.01357 13.61910 35971 ft 495 kts 293°
2026-05-09 09:46 -8.98499 13.55575 35971 ft 495 kts 293°
2026-05-09 09:46 -8.95637 13.49237 35971 ft 496 kts 293°
2026-05-09 09:47 -8.92773 13.42901 35963 ft 495 kts 293°
2026-05-09 09:47 -8.89904 13.36557 35962 ft 496 kts 293°
2026-05-09 09:48 -8.87055 13.30259 35962 ft 496 kts 292°
2026-05-09 09:48 -8.84186 13.23919 35962 ft 496 kts 293°
2026-05-09 09:49 -8.81677 13.17436 35962 ft 495 kts 288°
2026-05-09 09:49 -8.79424 13.10869 35962 ft 495 kts 287°
2026-05-09 09:50 -8.77127 13.04313 35962 ft 495 kts 288°
2026-05-09 09:50 -8.74763 12.97762 35962 ft 496 kts 288°
2026-05-09 09:51 -8.72383 12.91231 35962 ft 495 kts 288°
2026-05-09 09:51 -8.70003 12.84701 35962 ft 495 kts 288°
2026-05-09 09:52 -8.67635 12.78206 35970 ft 496 kts 288°
2026-05-09 09:52 -8.65252 12.71672 35971 ft 496 kts 288°
2026-05-09 09:53 -8.62869 12.65136 35971 ft 496 kts 288°
2026-05-09 09:53 -8.60485 12.58602 35971 ft 496 kts 288°
2026-05-09 09:54 -8.58099 12.52067 35971 ft 496 kts 288°
2026-05-09 09:54 -8.55709 12.45526 35971 ft 496 kts 288°
2026-05-09 09:55 -8.53318 12.38986 35971 ft 496 kts 288°
2026-05-09 09:55 -8.50926 12.32445 35971 ft 496 kts 288°
2026-05-09 09:56 -8.48533 12.25903 35971 ft 496 kts 288°
2026-05-09 09:56 -8.46153 12.19410 35971 ft 497 kts 288°
2026-05-09 09:57 -8.43751 12.12865 35972 ft 497 kts 288°
2026-05-09 09:57 -8.41352 12.06321 35971 ft 497 kts 288°
2026-05-09 09:58 -8.38954 11.99777 35971 ft 497 kts 288°
2026-05-09 09:58 -8.36554 11.93236 35971 ft 497 kts 288°
2026-05-09 09:59 -8.34149 11.86689 35971 ft 497 kts 288°
2026-05-09 09:59 -8.31746 11.80148 35971 ft 497 kts 288°
2026-05-09 10:00 -8.29339 11.73601 35971 ft 497 kts 288°
2026-05-09 10:00 -8.26950 11.67109 35971 ft 497 kts 288°
2026-05-09 10:01 -8.24544 11.60571 35972 ft 497 kts 288°
2026-05-09 10:01 -8.22136 11.54034 35971 ft 497 kts 288°
2026-05-09 10:02 -8.19725 11.47492 35971 ft 497 kts 288°
2026-05-09 10:02 -8.17316 11.40960 35971 ft 497 kts 288°
2026-05-09 10:03 -8.14904 11.34424 35978 ft 497 kts 288°
2026-05-09 10:03 -8.12507 11.27928 35980 ft 497 kts 288°
2026-05-09 10:04 -8.10093 11.21396 35980 ft 497 kts 288°
2026-05-09 10:04 -8.07682 11.14862 35980 ft 497 kts 288°
2026-05-09 10:05 -8.05269 11.08340 35980 ft 497 kts 288°
2026-05-09 10:05 -8.02851 11.01808 35980 ft 497 kts 288°
2026-05-09 10:06 -8.00431 10.95273 35980 ft 497 kts 288°
2026-05-09 10:06 -7.98007 10.88738 35981 ft 497 kts 288°
2026-05-09 10:07 -7.95585 10.82186 35982 ft 499 kts 288°
2026-05-09 10:07 -7.93155 10.75621 35981 ft 499 kts 288°
2026-05-09 10:08 -7.90722 10.69067 35980 ft 499 kts 288°
2026-05-09 10:08 -7.88285 10.62506 35980 ft 499 kts 288°
2026-05-09 10:09 -7.85852 10.55956 35981 ft 499 kts 288°
2026-05-09 10:09 -7.83430 10.49442 35980 ft 499 kts 288°
2026-05-09 10:10 -7.80992 10.42881 35980 ft 499 kts 288°
2026-05-09 10:10 -7.78556 10.36326 35980 ft 499 kts 288°
2026-05-09 10:11 -7.76120 10.29784 35980 ft 499 kts 288°
2026-05-09 10:11 -7.73679 10.23228 35980 ft 499 kts 288°
2026-05-09 10:12 -7.71241 10.16686 35980 ft 499 kts 288°
2026-05-09 10:12 -7.68800 10.10137 35980 ft 499 kts 288°
2026-05-09 10:13 -7.66358 10.03586 35980 ft 499 kts 288°
2026-05-09 10:13 -7.63914 9.97047 35981 ft 499 kts 288°
2026-05-09 10:14 -7.61488 9.90544 35980 ft 499 kts 288°
2026-05-09 10:14 -7.59043 9.83996 35980 ft 499 kts 288°
2026-05-09 10:15 -7.56594 9.77443 35980 ft 499 kts 288°
2026-05-09 10:15 -7.54143 9.70892 35980 ft 500 kts 288°
2026-05-09 10:16 -7.51694 9.64340 35980 ft 500 kts 288°
2026-05-09 10:16 -7.49240 9.57780 35980 ft 500 kts 288°
2026-05-09 10:17 -7.46785 9.51225 35980 ft 500 kts 288°
2026-05-09 10:17 -7.44326 9.44663 35981 ft 501 kts 288°
2026-05-09 10:18 -7.41863 9.38094 35980 ft 501 kts 288°
2026-05-09 10:18 -7.39402 9.31529 35980 ft 501 kts 288°
2026-05-09 10:19 -7.36951 9.24994 35981 ft 502 kts 288°
2026-05-09 10:19 -7.34482 9.18420 35980 ft 502 kts 288°
2026-05-09 10:20 -7.32011 9.11846 35980 ft 502 kts 289°
2026-05-09 10:20 -7.29540 9.05274 35981 ft 502 kts 289°
2026-05-09 10:21 -7.27068 8.98692 35980 ft 502 kts 289°
2026-05-09 10:21 -7.24595 8.92112 35980 ft 502 kts 289°
2026-05-09 10:22 -7.22118 8.85530 35980 ft 503 kts 289°
2026-05-09 10:22 -7.19639 8.78949 35980 ft 503 kts 289°
2026-05-09 10:23 -7.17160 8.72371 35980 ft 503 kts 289°
2026-05-09 10:23 -7.14696 8.65827 35983 ft 503 kts 289°
2026-05-09 10:24 -7.12214 8.59246 35980 ft 503 kts 289°
2026-05-09 10:24 -7.10132 8.53731 35980 ft 503 kts 289°
2026-05-09 10:25 -7.07649 8.47152 35980 ft 503 kts 289°
2026-05-09 10:25 -7.05165 8.40570 35980 ft 503 kts 289°
2026-05-09 10:26 -7.02697 8.34039 35980 ft 503 kts 289°
2026-05-09 10:26 -7.00212 8.27465 35980 ft 503 kts 289°
2026-05-09 10:27 -6.97723 8.20886 35980 ft 503 kts 289°
2026-05-09 10:27 -6.95237 8.14313 35980 ft 503 kts 289°
2026-05-09 10:28 -6.92748 8.07735 35980 ft 503 kts 289°
2026-05-09 10:28 -6.90261 8.01161 35980 ft 503 kts 289°
2026-05-09 10:29 -6.87773 7.94592 35980 ft 503 kts 289°
2026-05-09 10:29 -6.85279 7.88016 35980 ft 502 kts 289°
2026-05-09 10:30 -6.82790 7.81449 35980 ft 503 kts 289°
2026-05-09 10:30 -6.80310 7.74914 35980 ft 503 kts 289°
2026-05-09 10:31 -6.77814 7.68341 35980 ft 503 kts 289°
2026-05-09 10:31 -6.75320 7.61773 35980 ft 503 kts 289°